Location: Balmoral
(33.0667°S, 151.5833°E)
Time: 01:36:39
(UTC+00:00)

USA 281 - Pass Details

Date: 18 September 2020
Orbit: 1079 x 1080 km, 106.0° (Epoch: 04 October)

Event Time Altitude Azimuth Distance (km) Brightness Sun altitude
Rises 18:24:38 0° 13° (NNE) 3,862 6.2 -18.1°
Reaches altitude 10° 18:27:10 10° 9° (N) 2,913 5.5 -17.6°
Maximum altitude 18:33:37 60° 289° (WNW) 1,226 3.2 -16.2°
Drops below altitude 10° 18:40:09 10° 210° (SSW) 2,944 5.3 -14.9°
Sets 18:42:45 0° 206° (SSW) 3,907 6.0 -14.3°
